FW0923 Sarasota FL US current weather conditions

sailwx.info

Wind from 102 at 3 knots gusting 9

Air temperature 25.0° C
Dewpoint 21.9° C

Last reported at 2018-Dec-14 20:03 UTC.
Time now 2018-Dec-14 20:32 UTC

Location: N 27°25' W 082°33'.
View on Google Maps.

See reports from other nearby stations

  
Tides and Currents Weather Stations Pressure Air Temp Water Temp Dewpoint Dewpoint Depression Visibility Wind Speed Wind Dir Waves Ship Positions
date/time (UTC)wind fromknots sea level pressurealtimeterstation pressurevisibilityair tempwater tempwave heightnotes
2018-Dec-14 20:03 102 3 gusting 9 25.0
2018-Dec-14 19:53 112 5 gusting 7 25.6
2018-Dec-14 19:43 240 3 gusting 10 25.6
2018-Dec-14 19:33 189 3 gusting 10 25.6
2018-Dec-14 19:23 159 2 gusting 10 24.4
2018-Dec-14 19:13 142 3 gusting 8 23.9
2018-Dec-14 19:03 199 4 gusting 8 23.3
2018-Dec-14 18:53 148 2 gusting 6 23.3
2018-Dec-14 18:43 150 2 gusting 7 22.8
2018-Dec-14 18:33 198 1 gusting 6 22.8
2018-Dec-14 18:23 247 0 gusting 3 22.8
2018-Dec-14 18:13 256 0 gusting 5 22.2
2018-Dec-14 18:03 150 0 gusting 6 22.2
2018-Dec-14 17:53 169 0 gusting 7 22.2
2018-Dec-14 17:43 132 2 gusting 6 22.2
2018-Dec-14 17:33 192 0 gusting 5 22.2
2018-Dec-14 17:23 227 0 gusting 5 22.2
2018-Dec-14 17:13 148 22.2
2018-Dec-14 17:03 206 22.2
2018-Dec-14 16:53 145 0 gusting 3 21.7
2018-Dec-14 16:43 188 21.7
2018-Dec-14 16:33 135 1 gusting 5 21.7
2018-Dec-14 16:23 148 0 gusting 4 21.1
2018-Dec-14 16:13 139 21.1
2018-Dec-14 16:03 151 21.1
2018-Dec-14 15:53 150 21.1
2018-Dec-14 15:43 169 21.1
2018-Dec-14 15:33 174 0 gusting 4 21.1
2018-Dec-14 15:23 164 0 gusting 2 21.1
2018-Dec-14 15:13 218 0 gusting 3 21.1
2018-Dec-14 15:03 163 0 gusting 4 21.1
2018-Dec-14 14:53 122 0 gusting 3 21.7
2018-Dec-14 14:43 171 0 gusting 4 21.7
2018-Dec-14 14:33 140 0 gusting 6 22.2
2018-Dec-14 14:23 182 1 gusting 6 22.2
2018-Dec-14 14:13 148 1 gusting 6 22.2
2018-Dec-14 14:03 123 0 gusting 7 22.2
2018-Dec-14 13:53 137 0 gusting 7 22.2
2018-Dec-14 13:43 179 0 gusting 6 22.2
2018-Dec-14 13:33 167 1 gusting 8 22.8
2018-Dec-14 13:23 127 2 gusting 8 22.2
2018-Dec-14 13:13 142 1 gusting 6 22.2
2018-Dec-14 13:03 187 2 gusting 7 22.2
2018-Dec-14 12:53 198 2 gusting 7 22.2
2018-Dec-14 12:43 126 0 gusting 6 21.7
2018-Dec-14 12:33 175 1 gusting 6 21.7
2018-Dec-14 12:23 194 1 gusting 6 21.7
2018-Dec-14 12:13 169 1 gusting 8 21.7
2018-Dec-14 12:03 141 2 gusting 6 21.7
2018-Dec-14 11:53 101 0 gusting 7 21.7
2018-Dec-14 11:43 148 1 gusting 7 21.1
2018-Dec-14 11:33 117 1 gusting 6 21.1
2018-Dec-14 11:23 217 0 gusting 7 21.1
2018-Dec-14 11:13 148 1 gusting 6 20.6
2018-Dec-14 11:03 161 1 gusting 6 20.6
2018-Dec-14 10:53 226 1 gusting 4 20.6
2018-Dec-14 10:43 126 1 gusting 8 20.6
2018-Dec-14 10:33 094 0 gusting 6 20.6
2018-Dec-14 10:23 126 1 gusting 7 20.6
2018-Dec-14 10:13 107 1 gusting 6 20.6
2018-Dec-14 10:03 113 2 gusting 6 20.6
2018-Dec-14 09:53 173 2 gusting 7 20.6
2018-Dec-14 09:43 168 0 gusting 7 20.6
2018-Dec-14 09:33 192 1 gusting 8 20.6
2018-Dec-14 09:23 118 0 gusting 6 20.0
2018-Dec-14 09:13 126 1 gusting 7 20.0
2018-Dec-14 09:03 111 3 gusting 7 20.0
2018-Dec-14 08:53 111 0 gusting 9 19.4
2018-Dec-14 08:43 112 2 gusting 7 19.4
2018-Dec-14 08:33 138 1 gusting 6 19.4
2018-Dec-14 08:23 139 0 gusting 3 19.4
2018-Dec-14 08:13 136 2 gusting 6 19.4
2018-Dec-14 08:03 104 0 gusting 4 19.4
2018-Dec-14 07:53 229 1 gusting 4 19.4
2018-Dec-14 07:43 101 1 gusting 5 19.4
2018-Dec-14 07:33 163 0 gusting 6 19.4
2018-Dec-14 07:23 114 0 gusting 6 19.4
2018-Dec-14 07:13 163 1 gusting 6 19.4
2018-Dec-14 07:03 175 2 gusting 7 19.4
2018-Dec-14 06:53 147 0 gusting 6 19.4
2018-Dec-14 06:43 213 0 gusting 5 19.4
2018-Dec-14 06:33 154 1 gusting 6 19.4
2018-Dec-14 06:23 145 0 gusting 3 19.4
2018-Dec-14 06:13 121 0 gusting 2 19.4
2018-Dec-14 06:03 161 19.4
2018-Dec-14 05:53 163 20.0
2018-Dec-14 05:43 140 0 gusting 2 20.0
2018-Dec-14 05:33 124 0 gusting 2 20.0
2018-Dec-14 05:23 136 20.0
2018-Dec-14 05:13 139 20.6
2018-Dec-14 05:03 161 0 gusting 2 20.6
2018-Dec-14 04:53 162 20.6
2018-Dec-14 04:43 108 0 gusting 3 20.6
2018-Dec-14 04:33 114 1 gusting 6 20.6
2018-Dec-14 04:23 155 1 gusting 6 21.1
2018-Dec-14 04:13 118 1 gusting 5 21.1
2018-Dec-14 04:03 159 21.1
2018-Dec-14 03:53 107 0 gusting 6 21.1
2018-Dec-14 03:43 123 1 gusting 7 21.1
2018-Dec-14 03:33 112 1 gusting 4 21.1
2018-Dec-14 03:23 122 2 gusting 6 21.1
2018-Dec-14 03:13 105 1 gusting 6 21.1
2018-Dec-14 03:03 116 1 gusting 7 21.1
2018-Dec-14 02:53 140 2 gusting 7 21.1
2018-Dec-14 02:43 130 1 gusting 5 21.1
2018-Dec-14 02:33 140 0 gusting 5 21.1
2018-Dec-14 02:23 129 21.1
2018-Dec-14 02:13 162 1 gusting 5 21.1
2018-Dec-14 02:03 148 21.1
2018-Dec-14 01:53 217 0 gusting 2 21.1
2018-Dec-14 01:43 157 21.1
2018-Dec-14 01:33 227 21.7
2018-Dec-14 01:23 176 21.7
2018-Dec-14 01:13 122 21.7
2018-Dec-14 01:03 135 21.7
2018-Dec-14 00:53 129 21.1
2018-Dec-14 00:43 129 21.1
2018-Dec-14 00:33 129 21.1
2018-Dec-14 00:23 129 21.1
2018-Dec-14 00:13 129 21.7
2018-Dec-14 00:03 129 21.7
2018-Dec-13 23:53 129 21.7
2018-Dec-13 23:43 129 21.7
2018-Dec-13 23:33 129 22.2
2018-Dec-13 23:23 129 22.2
2018-Dec-13 23:13 129 22.2
2018-Dec-13 23:03 129 22.2
2018-Dec-13 22:53 129 22.8
2018-Dec-13 22:43 129 23.3
2018-Dec-13 22:33 129 23.3
2018-Dec-13 22:23 129 23.3
2018-Dec-13 22:13 129 23.9
2018-Dec-13 22:03 129 23.9
2018-Dec-13 21:53 140 24.4
2018-Dec-13 21:43 139 24.4
2018-Dec-13 21:33 192 24.4
2018-Dec-13 21:23 127 24.4
2018-Dec-13 21:13 126 1 gusting 4 24.4
2018-Dec-13 21:03 121 0 gusting 5 24.4
2018-Dec-13 20:53 153 0 gusting 5 25.0
2018-Dec-13 20:43 155 1 gusting 6 25.0
2018-Dec-13 20:33 133 1 gusting 6 25.0
2018-Dec-13 20:23 099 1 gusting 6 25.0
2018-Dec-13 20:13 109 1 gusting 6 25.0
2018-Dec-13 20:03 120 1 gusting 6 25.0
2018-Dec-13 19:53 153 1 gusting 6 25.0
2018-Dec-13 19:43 196 0 gusting 2 24.4
2018-Dec-13 19:33 142 0 gusting 3 24.4
2018-Dec-13 19:23 133 0 gusting 4 24.4
2018-Dec-13 19:13 180 1 gusting 3 24.4
2018-Dec-13 19:03 136 2 gusting 6 24.4
2018-Dec-13 18:53 113 1 gusting 4 25.0
2018-Dec-13 18:43 143 0 gusting 3 25.0
2018-Dec-13 18:33 161 0 gusting 4 25.0
2018-Dec-13 18:23 187 0 gusting 6 25.0
2018-Dec-13 18:13 123 1 gusting 6 25.0
2018-Dec-13 18:03 132 2 gusting 6 23.9
2018-Dec-13 17:53 114 0 gusting 4 23.9
2018-Dec-13 17:43 169 1 gusting 6 23.9
2018-Dec-13 17:33 121 0 gusting 6 23.9
2018-Dec-13 17:23 144 2 gusting 11 24.4
2018-Dec-13 17:13 069 2 gusting 8 23.9
2018-Dec-13 17:03 121 2 gusting 6 23.9
2018-Dec-13 16:53 138 1 gusting 7 23.9
2018-Dec-13 16:43 101 1 gusting 5 23.3
2018-Dec-13 16:33 109 1 gusting 3 23.3
2018-Dec-13 16:23 102 1 gusting 6 22.8
2018-Dec-13 16:13 103 2 gusting 7 22.2
2018-Dec-13 16:03 094 1 gusting 6 21.7
2018-Dec-13 15:53 125 0 gusting 3 22.2
2018-Dec-13 15:43 106 1 gusting 5 21.7
2018-Dec-13 15:33 127 2 gusting 6 21.1
2018-Dec-13 15:23 086 1 gusting 3 21.1
2018-Dec-13 15:13 129 20.6
2018-Dec-13 15:03 113 20.6
2018-Dec-13 14:53 097 0 gusting 3 20.0
2018-Dec-13 14:43 098 0 gusting 5 18.9
2018-Dec-13 14:33 115 18.9
2018-Dec-13 14:23 108 17.8
2018-Dec-13 14:13 100 17.8
2018-Dec-13 14:03 100 17.2
2018-Dec-13 13:53 109 17.2
2018-Dec-13 13:43 109 16.7
2018-Dec-13 13:33 092 15.6
2018-Dec-13 13:23 092 15.6
2018-Dec-13 13:13 092 15.0
2018-Dec-13 13:03 092 15.0
2018-Dec-13 12:53 092 14.4
2018-Dec-13 12:43 092 14.4
2018-Dec-13 12:33 092 14.4
2018-Dec-13 12:23 092 14.4
2018-Dec-13 12:13 092 14.4
2018-Dec-13 12:03 092 14.4
2018-Dec-13 11:53 092 14.4
2018-Dec-13 11:43 092 14.4
2018-Dec-13 11:33 092 13.9
2018-Dec-13 11:23 092 13.9
2018-Dec-13 11:13 108 13.9
2018-Dec-13 11:03 108 13.9
2018-Dec-13 10:53 108 13.9
2018-Dec-13 10:43 108 13.9
2018-Dec-13 10:33 108 13.9
2018-Dec-13 10:23 108 13.3
2018-Dec-13 10:13 108 13.3
2018-Dec-13 10:03 108 13.3
2018-Dec-13 09:53 108 13.3
2018-Dec-13 09:43 108 13.3
2018-Dec-13 09:33 108 13.3
2018-Dec-13 09:23 108 13.3
2018-Dec-13 09:13 108 13.3
2018-Dec-13 09:03 108 13.3
2018-Dec-13 08:53 108 13.3
2018-Dec-13 08:43 108 13.3
2018-Dec-13 08:33 108 13.9
2018-Dec-13 08:23 108 13.9
2018-Dec-13 08:13 108 13.9
2018-Dec-13 08:03 108 13.9
2018-Dec-13 07:53 109 13.9
2018-Dec-13 07:43 109 13.9
2018-Dec-13 07:33 109 13.9
2018-Dec-13 07:23 109 13.9
2018-Dec-13 07:13 109 13.9
2018-Dec-13 07:03 109 13.9
2018-Dec-13 06:53 109 13.9
2018-Dec-13 06:43 109 14.4
2018-Dec-13 06:33 111 14.4
2018-Dec-13 06:23 103 13.9
2018-Dec-13 06:13 103 13.9
2018-Dec-13 06:03 103 13.9
2018-Dec-13 05:53 103 13.9
2018-Dec-13 05:43 103 14.4
2018-Dec-13 05:33 103 14.4
2018-Dec-13 05:23 103 14.4
2018-Dec-13 05:13 103 15.0
2018-Dec-13 05:03 103 15.0
2018-Dec-13 04:53 103 15.0
2018-Dec-13 04:43 102 15.0
2018-Dec-13 04:33 102 15.0
2018-Dec-13 04:23 102 14.4
2018-Dec-13 04:13 102 14.4
2018-Dec-13 04:03 102 14.4
2018-Dec-13 03:53 102 14.4
2018-Dec-13 03:43 102 14.4
2018-Dec-13 03:33 102 14.4
2018-Dec-13 03:23 102 14.4
2018-Dec-13 03:13 102 14.4
2018-Dec-13 03:03 102 14.4
2018-Dec-13 02:53 102 14.4
2018-Dec-12 22:33 102 17.2
2018-Dec-12 22:23 102 17.8
2018-Dec-12 22:13 102 17.8
2018-Dec-12 22:03 108 18.3
2018-Dec-12 21:53 108 18.3
2018-Dec-12 21:43 108 18.9
2018-Dec-12 21:33 114 19.4
2018-Dec-12 21:23 114 19.4
2018-Dec-12 21:13 116 19.4
2018-Dec-12 21:03 116 20.0
2018-Dec-12 20:53 116 20.0
2018-Dec-12 20:43 116 20.6
2018-Dec-12 20:33 116 20.6
2018-Dec-12 20:23 121 20.6
2018-Dec-12 20:13 121 20.6
2018-Dec-12 20:03 130 20.6